Vertical_Velocity
1 0 -0 -1 -1 -1 -1 -1 -2 -2 -3 -4 -4 -4 -4 -3 -2 -2 -1 -1 -1 -1 -1 -1 -2 -1 -1 -0 -1 -1 -1 -0 1 1 2 3 3 3 2 1 -0 -2 -4 -5 -4 -2 -1 -1 0 4 7 7 6 6 8 10 10 7 5 3 2 2 2 3 2 2 3 3 4
1 1 0 -0 -1 -1 -1 -1 -1 -2 -2 -3 -4 -4 -4 -4 -3 -3 -2 -1 -1 -0 -0 -0 -1 -1 -1 -1 -1 -2 -2 -1 1 1 2 2 3 3 3 3 2 1 -1 -4 -6 -5 -3 -1 -0 2 5 5 4 5 7 9 8 6 3 2 -0 -1 -1 1 1 1 2 2 4
0 1 0 -0 -1 -1 -1 -1 -1 -1 -2 -3 -3 -3 -4 -4 -4 -3 -2 -2 -1 -1 -0 -0 -0 -0 -1 -1 -2 -2 -1 -1 -1 0 1 2 2 3 4 3 2 2 1 -1 -4 -5 -4 -2 -1 0 2 3 3 4 5 6 6 5 5 4 2 0 -1 -1 -0 1 2 2 3
0 0 1 0 -0 -1 -1 -1 -1 -1 -1 -2 -3 -3 -3 -4 -4 -4 -3 -2 -2 -1 -1 -1 -0 -0 -0 -1 -1 -2 -2 -1 -2 -2 -0 1 2 3 3 3 2 2 1 1 0 -1 -2 -3 -1 -0 -0 0 2 3 4 5 6 6 6 5 4 4 2 0 -1 -0 1 2 2
-0 0 1 1 0 -0 -1 -1 -1 -1 -1 -2 -2 -3 -3 -3 -4 -4 -4 -3 -2 -2 -1 -1 -0 -0 -0 -0 -1 -1 -2 -3 -2 -2 -2 -1 -0 1 2 3 3 3 2 3 3 2 1 -0 -1 -1 -0 -1 -1 -0 1 3 5 5 5 5 6 7 7 7 5 4 2 2 3
-0 -0 0 0 0 -0 -0 -1 -1 -1 -1 -1 -2 -3 -3 -3 -3 -4 -4 -4 -3 -2 -1 -1 -1 -0 -0 -0 -0 -1 -2 -3 -3 -3 -3 -4 -4 -2 0 2 2 3 3 3 4 4 4 3 1 0 -0 -1 -2 -3 -2 1 3 3 2 5 8 10 11 13 12 10 7 5 4
-0 -0 -0 0 0 0 -0 -1 -0 -0 -0 -1 -2 -2 -3 -3 -3 -3 -3 -4 -3 -3 -2 -2 -1 -1 -0 0 -0 -0 -1 -2 -3 -3 -4 -4 -5 -5 -3 -1 0 1 2 3 4 4 4 4 3 1 -0 -1 -1 -2 -3 -2 0 1 2 4 9 12 13 15 15 14 11 7 5
-0 -0 -0 0 0 1 0 -0 -0 -0 -0 -0 -1 -2 -3 -3 -3 -3 -3 -3 -3 -3 -3 -2 -1 -1 -0 -0 0 -0 -0 -1 -2 -3 -4 -4 -5 -6 -6 -4 -3 -1 0 2 2 3 4 4 4 2 1 -1 -0 -0 -1 -2 -1 -1 0 2 5 8 12 13 14 14 13 10 6
-1 -1 -0 -0 0 1 1 0 0 -0 -0 -0 -1 -1 -2 -3 -3 -3 -3 -3 -3 -3 -3 -2 -2 -1 -1 -0 -0 0 0 -0 -1 -2 -3 -4 -4 -5 -5 -5 -4 -3 -2 -0 0 1 2 4 3 2 1 -0 -1 -0 1 1 -0 -1 -1 -0 1 4 8 10 11 12 12 12 10
-1 -0 -0 -0 -0 0 1 1 1 0 -0 -0 -0 -1 -1 -2 -3 -3 -3 -3 -3 -3 -3 -3 -2 -2 -1 -1 -0 0 0 1 0 -0 -1 -2 -4 -4 -5 -5 -6 -5 -4 -3 -1 0 1 2 2 2 1 1 -0 -0 0 3 3 1 -0 -0 1 2 4 6 8 9 10 12 12
-1 -0 -0 0 0 0 1 1 1 0 -0 -0 -0 -0 -1 -2 -3 -4 -4 -3 -3 -3 -3 -3 -2 -2 -2 -1 -1 -0 0 1 1 0 -0 -1 -2 -3 -4 -5 -6 -6 -6 -5 -3 -1 1 1 1 1 1 1 1 -0 -0 1 4 4 3 2 1 0 1 3 5 6 8 10 11
-1 -1 -0 0 0 0 0 1 1 1 0 -0 -0 -1 -1 -1 -2 -3 -4 -4 -3 -3 -3 -3 -2 -2 -2 -2 -1 -1 -0 0 1 1 0 -0 -1 -2 -3 -4 -4 -5 -6 -6 -4 -2 -1 -0 0 0 1 1 1 0 -0 -0 2 3 3 3 1 -0 0 3 3 5 6 8 8
-2 -1 -0 -0 0 0 1 1 1 1 1 0 -0 -1 -1 -1 -1 -2 -3 -4 -4 -3 -3 -2 -2 -2 -2 -2 -2 -1 -1 -0 0 1 0 -0 -0 -1 -2 -3 -3 -3 -4 -6 -5 -4 -3 -2 -1 -0 0 0 0 -0 -0 -0 -0 0 1 2 2 1 2 3 4 6 7 9 8
-3 -2 -1 -0 0 1 1 1 1 1 1 1 0 -0 -1 -1 -1 -1 -2 -3 -3 -3 -3 -2 -2 -2 -2 -2 -2 -2 -1 -0 0 1 1 0 -0 -1 -1 -2 -2 -2 -2 -3 -5 -6 -6 -5 -3 -2 -1 -0 -1 -1 -1 -0 -1 -1 -0 0 1 1 2 2 3 5 7 9 10
-3 -3 -1 -0 0 1 1 1 1 1 2 2 1 0 -1 -1 -1 -1 -2 -2 -3 -3 -3 -3 -2 -2 -2 -1 -2 -1 -1 -1 -0 0 1 1 0 -0 -1 -1 -2 -2 -2 -1 -3 -4 -6 -7 -6 -4 -2 -1 -2 -2 -1 -1 -0 -1 -1 -0 1 1 1 1 1 3 5 8 10
-4 -3 -3 -1 -0 1 1 1 1 1 2 2 1 1 -0 -1 -1 -1 -1 -2 -2 -3 -3 -3 -2 -2 -1 -1 -1 -1 -1 -1 -0 0 1 1 1 0 -0 -1 -2 -2 -2 -1 -1 -2 -4 -6 -7 -6 -4 -2 -2 -2 -1 -1 -0 -0 0 1 1 1 1 1 1 2 3 5 8
-4 -4 -4 -3 -1 0 1 1 1 1 1 2 2 1 1 -0 -1 -1 -1 -2 -2 -3 -3 -3 -3 -2 -1 -1 -1 -1 -1 -1 -0 -0 0 1 1 1 0 -1 -1 -2 -2 -2 -1 -0 -1 -3 -6 -7 -6 -4 -3 -2 -2 -1 -0 0 1 1 1 1 1 2 2 2 2 3 5
-4 -4 -4 -4 -2 -1 0 1 1 1 1 1 1 1 1 1 -0 -1 -1 -1 -2 -2 -3 -4 -3 -2 -2 -1 -1 -1 -1 -0 -0 -0 0 1 1 1 1 0 -1 -1 -2 -2 -1 -1 -0 -0 -2 -4 -6 -6 -5 -4 -3 -2 -1 0 1 1 1 1 1 1 1 2 2 2 3
-4 -4 -4 -4 -3 -2 -0 1 1 1 1 1 1 1 1 1 0 -0 -1 -1 -1 -2 -2 -3 -3 -3 -2 -2 -1 -1 -1 -0 -0 0 0 1 1 1 1 1 0 -0 -1 -2 -2 -2 -1 -0 -0 -1 -3 -4 -5 -6 -5 -4 -2 -1 -0 1 0 -0 -1 -0 -0 -0 0 0 1
-4 -4 -4 -4 -4 -3 -1 -0 0 1 1 1 1 1 1 1 1 0 -0 -1 -1 -1 -1 -2 -3 -3 -3 -2 -2 -1 -1 -0 -0 0 0 1 1 1 1 1 1 1 0 -1 -2 -2 -2 -1 -1 -1 -1 -2 -3 -4 -5 -6 -4 -3 -2 -0 -1 -1 -2 -2 -3 -3 -3 -2 -2
-4 -4 -4 -4 -4 -3 -2 -1 -0 1 1 1 1 0 0 0 0 0 -0 -1 -1 -1 -1 -1 -2 -3 -3 -3 -2 -2 -1 -1 -0 0 1 1 1 1 1 1 2 2 1 1 -0 -2 -2 -2 -2 -2 -2 -2 -2 -3 -4 -5 -6 -5 -4 -3 -2 -2 -3 -3 -4 -5 -5 -5 -4
-4 -4 -4 -4 -4 -4 -3 -2 -1 0 1 1 1 0 0 -0 -0 -0 -0 -0 -1 -1 -1 -1 -1 -2 -3 -3 -3 -2 -1 -1 -0 0 0 1 1 1 1 1 2 2 2 2 1 0 -1 -2 -3 -3 -3 -3 -3 -3 -3 -4 -5 -6 -6 -6 -5 -4 -3 -4 -4 -5 -5 -6 -5
-4 -4 -4 -4 -4 -4 -4 -3 -1 -0 1 1 1 1 0 -0 -0 -0 -1 -1 -1 -1 -1 -0 -1 -2 -3 -3 -3 -2 -2 -1 -1 -0 0 1 1 1 1 1 2 2 2 2 2 2 1 0 -1 -2 -3 -4 -4 -4 -3 -3 -3 -4 -6 -7 -7 -6 -5 -4 -4 -4 -5 -6 -6
-3 -4 -4 -4 -5 -4 -4 -3 -2 -1 0 1 1 1 1 0 -0 -1 -1 -1 -1 -1 -1 -0 -1 -1 -2 -2 -2 -2 -2 -2 -1 -1 -0 0 1 1 1 1 1 2 2 2 3 3 3 3 2 1 -1 -2 -3 -3 -4 -3 -3 -3 -3 -4 -6 -6 -6 -5 -4 -3 -4 -5 -6
-2 -3 -4 -4 -4 -4 -4 -4 -3 -1 -0 1 1 1 1 1 -0 -0 -1 -0 -0 -1 -1 -1 -1 -1 -1 -1 -2 -2 -2 -2 -2 -1 -0 0 0 1 1 1 1 1 1 2 2 3 4 4 4 4 3 2 0 -1 -2 -2 -2 -1 -1 -1 -3 -4 -5 -6 -4 -3 -3 -5 -6
-1 -2 -3 -3 -4 -4 -4 -4 -4 -3 -1 0 1 1 1 1 0 -0 -0 -0 -0 -0 -1 -1 -1 -1 -1 -1 -1 -1 -2 -2 -2 -1 -1 -0 0 0 1 1 1 1 1 1 2 3 3 3 4 4 4 4 4 2 1 0 -0 -1 -1 -0 -0 -1 -2 -4 -4 -4 -4 -4 -5
-0 -1 -2 -3 -3 -3 -4 -4 -4 -4 -2 -1 0 1 1 1 1 0 0 0 0 0 -0 -0 -0 -1 -1 -0 -0 -0 -1 -1 -2 -2 -1 -1 -0 0 0 1 1 1 1 1 1 2 2 2 2 3 4 4 5 4 4 3 1 -0 -1 -1 -0 0 -0 -1 -3 -4 -5 -5 -5
-0 -1 -1 -2 -2 -3 -4 -4 -4 -4 -4 -3 -1 0 1 2 2 1 1 1 1 0 0 0 -0 -1 -1 -0 0 0 -0 -1 -2 -2 -2 -1 -0 -0 0 0 1 1 1 1 1 1 1 1 1 2 2 3 4 4 4 4 2 1 -0 -1 -0 -0 0 0 -1 -3 -4 -5 -4
-1 -1 -1 -0 -1 -2 -3 -3 -4 -5 -5 -4 -2 -0 1 2 2 2 1 1 1 1 1 1 -0 -1 -1 -0 0 0 0 -1 -1 -2 -2 -1 -1 -1 -0 0 0 1 1 1 1 1 1 1 1 1 1 2 3 3 4 4 3 2 1 -0 -1 -1 -0 -0 -0 -1 -2 -3 -3
-1 -1 -0 -0 0 -0 -1 -2 -4 -5 -5 -5 -3 -1 0 1 2 2 2 1 1 1 1 1 -0 -1 -1 -1 0 0 0 -0 -1 -1 -1 -1 -1 -1 -1 -0 0 1 1 1 1 1 0 0 0 0 0 1 1 2 3 3 4 3 2 1 -0 -1 -1 -1 -0 -0 -0 -1 -1
-2 -1 -1 -0 1 1 0 -1 -2 -4 -5 -5 -4 -2 -1 1 2 2 2 2 1 1 1 0 -1 -1 -1 -1 -0 -0 -0 -0 -0 -0 -0 -0 -1 -1 -1 -1 -0 1 1 1 1 1 1 0 0 0 0 0 0 1 2 2 3 3 3 2 1 -1 -2 -2 -1 -0 0 1 0
-2 -2 -1 -0 1 1 1 0 -1 -2 -3 -4 -4 -2 -1 1 1 2 2 3 2 1 1 0 0 -0 -0 -0 -0 -0 -0 -0 -0 0 0 -0 -1 -2 -2 -1 -0 0 1 1 1 1 1 1 1 1 0 0 0 0 1 1 2 3 3 3 2 1 -0 -2 -2 -1 -0 1 1
-3 -2 -1 -0 0 1 1 1 0 -1 -2 -2 -3 -2 -1 -0 1 1 2 3 3 2 2 1 1 1 1 0 -0 -0 -0 -0 -0 -0 -1 -2 -2 -3 -3 -2 -1 -0 0 1 1 1 1 1 1 1 1 0 0 -0 0 0 1 2 2 3 3 3 2 0 -1 -2 -1 -1 0
-3 -2 -2 -1 0 1 1 1 0 0 -0 -1 -1 -1 -1 -0 0 1 1 2 2 3 3 2 2 2 1 0 -0 -0 -1 -1 -1 -1 -1 -2 -3 -4 -4 -3 -3 -2 -0 1 1 1 1 1 1 1 1 1 0 -0 -0 -0 0 1 1 2 3 4 3 3 1 -0 -2 -2 -1
-3 -2 -2 -1 -0 0 0 -0 -0 -0 0 1 0 -0 -1 -0 -0 0 0 0 1 2 3 3 3 3 2 0 0 0 0 -0 -0 -1 -1 -2 -3 -4 -4 -4 -4 -3 -2 0 1 1 1 1 1 1 1 1 1 1 0 -0 -0 -0 0 1 2 2 3 4 3 2 0 -2 -2
-2 -2 -1 -1 -1 -0 -0 -1 -1 -1 -0 1 1 1 -0 -1 -1 -0 -0 -0 0 1 2 4 4 4 3 2 1 1 2 2 1 0 -1 -2 -2 -2 -3 -4 -5 -4 -3 -1 -0 0 1 1 1 1 1 2 2 1 1 0 -0 -0 -0 -0 1 1 2 3 3 3 2 1 -1
-2 -1 -1 -1 -0 -0 -1 -1 -2 -2 -1 -0 1 1 1 -1 -1 -2 -1 -0 0 1 2 3 4 4 4 4 3 2 2 2 2 1 -0 -1 -1 -1 -2 -4 -5 -5 -4 -2 -1 -0 0 1 1 1 1 2 2 2 1 1 1 0 -0 -0 0 1 1 2 3 3 3 3 2
-2 -1 -1 -1 -0 -0 -0 -1 -2 -2 -2 -1 0 1 1 1 -1 -2 -3 -1 1 1 1 2 3 4 5 5 4 2 1 1 1 1 1 0 0 0 -0 -2 -4 -4 -4 -3 -2 -1 -0 0 0 1 1 2 2 2 1 1 1 1 1 1 0 0 1 1 2 2 3 3 3
-2 -2 -2 -1 -1 -0 -0 -1 -2 -2 -3 -2 -1 0 2 2 1 -2 -4 -2 -0 1 1 1 3 4 4 4 2 1 -0 -0 1 2 2 1 1 1 0 -1 -2 -3 -3 -3 -2 -1 -1 -0 -0 0 1 2 1 1 1 1 1 1 1 1 1 0 0 1 2 2 3 3 3
-3 -3 -3 -2 -2 -1 -1 -1 -2 -2 -3 -3 -2 -0 1 3 2 -1 -3 -3 -1 0 1 2 3 3 3 2 1 0 -0 -0 1 2 3 3 2 1 1 0 -1 -2 -2 -2 -1 -1 -1 -1 -0 0 1 1 1 1 1 2 2 2 1 1 1 1 1 1 2 2 2 3 3
-3 -3 -3 -3 -3 -3 -2 -2 -3 -3 -3 -3 -2 -1 -0 2 2 1 -1 -3 -2 -0 1 2 3 3 2 1 1 0 0 0 1 3 4 4 3 2 1 1 0 -0 -1 -1 -1 -1 -1 -1 -0 0 0 0 0 0 1 2 2 2 1 1 1 1 1 1 1 2 2 2 2
Height
3018 3017 3016 3016 3015 3015 3015 3015 3015 3015 3015 3016 3016 3016 3016 3016 3015 3015 3014 3014 3014 3014 3014 3014 3014 3015 3015 3016 3016 3017 3017 3018 3018 3019 3019 3019 3019 3019 3019 3020 3020 3021 3022 3023 3023 3024 3024 3025 3026 3026 3027 3029 3030 3031 3033 3034 3035 3036 3037 3038 3039 3040 3041 3042 3042 3043 3044 3045 3046
3016 3016 3016 3015 3014 3014 3013 3013 3013 3014 3014 3014 3015 3015 3015 3015 3015 3014 3014 3014 3013 3013 3013 3013 3013 3013 3013 3014 3015 3016 3016 3017 3017 3017 3018 3018 3019 3019 3019 3019 3020 3020 3021 3021 3022 3023 3023 3024 3024 3025 3026 3027 3028 3029 3030 3031 3033 3034 3035 3036 3037 3038 3039 3040 3041 3041 3042 3044 3045
3016 3015 3015 3014 3013 3013 3012 3012 3012 3012 3012 3013 3013 3014 3014 3014 3014 3013 3013 3013 3013 3012 3012 3012 3012 3012 3012 3012 3013 3014 3014 3015 3016 3016 3016 3017 3018 3018 3018 3018 3019 3020 3020 3021 3021 3022 3022 3022 3023 3023 3024 3025 3026 3027 3028 3030 3031 3032 3033 3034 3035 3036 3036 3037 3038 3039 3041 3042 3043
3014 3014 3013 3013 3012 3012 3011 3011 3011 3011 3011 3011 3011 3012 3012 3012 3012 3012 3012 3012 3012 3011 3011 3011 3011 3011 3011 3011 3011 3012 3012 3013 3014 3015 3015 3016 3016 3016 3017 3017 3018 3019 3019 3020 3020 3021 3021 3021 3021 3021 3022 3023 3024 3026 3026 3028 3029 3030 3031 3032 3033 3034 3034 3035 3035 3036 3038 3039 3041
3013 3012 3012 3012 3011 3011 3010 3010 3010 3010 3010 3010 3010 3010 3011 3011 3011 3011 3011 3011 3011 3011 3011 3010 3010 3010 3010 3010 3010 3011 3011 3011 3012 3013 3013 3014 3014 3015 3016 3016 3017 3017 3018 3018 3019 3019 3019 3019 3020 3020 3021 3021 3022 3023 3025 3026 3027 3028 3029 3030 3031 3032 3033 3033 3034 3035 3036 3037 3038
3012 3011 3011 3011 3010 3010 3009 3009 3009 3009 3009 3008 3009 3009 3009 3010 3010 3010 3010 3010 3010 3010 3010 3009 3009 3009 3009 3009 3009 3009 3009 3010 3011 3011 3011 3012 3012 3013 3014 3014 3015 3016 3016 3017 3017 3018 3018 3018 3018 3018 3019 3020 3020 3021 3023 3024 3025 3026 3027 3028 3029 3030 3031 3032 3033 3034 3035 3036 3036
3011 3010 3010 3009 3009 3009 3008 3008 3008 3007 3007 3007 3007 3007 3007 3008 3008 3009 3009 3009 3009 3009 3008 3008 3008 3008 3008 3008 3008 3008 3008 3008 3009 3009 3010 3011 3011 3011 3012 3012 3013 3014 3014 3015 3016 3016 3017 3017 3017 3017 3017 3018 3019 3020 3021 3022 3023 3024 3026 3027 3027 3028 3029 3031 3031 3032 3033 3034 3035
3009 3009 3008 3008 3008 3007 3007 3007 3006 3006 3006 3006 3006 3006 3006 3006 3007 3007 3007 3007 3007 3007 3007 3007 3007 3007 3007 3007 3007 3007 3007 3007 3007 3008 3008 3009 3010 3010 3010 3011 3011 3012 3012 3013 3014 3015 3015 3016 3016 3016 3016 3017 3017 3018 3019 3020 3021 3023 3024 3025 3025 3026 3027 3028 3030 3031 3032 3033 3034
3008 3007 3007 3007 3006 3006 3006 3006 3005 3005 3005 3005 3005 3004 3004 3005 3005 3005 3006 3006 3006 3006 3006 3006 3006 3006 3006 3006 3006 3006 3006 3006 3006 3006 3007 3007 3008 3009 3009 3009 3010 3010 3011 3011 3012 3012 3013 3014 3014 3014 3015 3016 3016 3017 3018 3019 3020 3021 3022 3023 3023 3024 3025 3026 3027 3028 3030 3031 3032
3006 3006 3006 3005 3005 3005 3005 3004 3004 3004 3003 3003 3003 3003 3003 3003 3003 3004 3004 3004 3005 3005 3005 3005 3005 3005 3005 3005 3005 3005 3005 3005 3005 3005 3005 3006 3006 3007 3008 3008 3008 3009 3009 3010 3010 3011 3011 3012 3012 3013 3013 3014 3015 3016 3016 3017 3018 3019 3020 3021 3022 3023 3023 3024 3025 3026 3028 3029 3030
3005 3005 3004 3004 3003 3003 3003 3003 3003 3002 3002 3002 3002 3002 3002 3001 3001 3002 3002 3003 3003 3003 3003 3003 3004 3003 3003 3003 3003 3003 3003 3004 3004 3004 3004 3004 3005 3005 3006 3006 3007 3007 3007 3008 3008 3009 3010 3010 3011 3011 3012 3013 3013 3014 3015 3016 3016 3017 3018 3019 3020 3021 3021 3021 3023 3024 3026 3027 3028
3004 3003 3003 3002 3002 3002 3001 3001 3001 3001 3001 3001 3000 3000 3000 3000 3000 3000 3000 3001 3001 3001 3002 3002 3002 3002 3002 3002 3002 3002 3002 3002 3003 3003 3003 3003 3003 3004 3004 3005 3005 3006 3006 3006 3006 3007 3008 3009 3009 3010 3010 3011 3012 3013 3013 3014 3015 3015 3016 3017 3018 3018 3019 3020 3021 3023 3024 3025 3026
3003 3002 3001 3001 3001 3000 3000 3000 3000 3000 2999 2999 2999 2999 2999 2999 2999 2999 2999 2999 2999 3000 3000 3001 3001 3001 3001 3001 3001 3001 3001 3001 3001 3001 3002 3002 3002 3002 3003 3003 3004 3004 3005 3005 3005 3006 3006 3007 3008 3008 3009 3010 3011 3011 3012 3012 3013 3014 3015 3015 3016 3016 3017 3018 3019 3021 3022 3023 3024
3001 3001 3000 3000 2999 2999 2998 2998 2998 2998 2998 2997 2997 2997 2997 2997 2997 2997 2997 2997 2998 2998 2998 2999 2999 2999 3000 3000 3000 3000 3000 3000 3000 3001 3001 3001 3001 3001 3001 3002 3002 3003 3003 3004 3004 3004 3005 3005 3006 3007 3007 3008 3009 3010 3011 3011 3011 3012 3013 3014 3014 3015 3015 3016 3017 3018 3019 3021 3022
3000 2999 2999 2998 2998 2997 2997 2996 2996 2996 2996 2996 2996 2996 2995 2995 2996 2996 2996 2996 2996 2996 2997 2997 2998 2998 2998 2998 2998 2998 2998 2999 2999 2999 2999 3000 3000 3000 3000 3001 3001 3002 3002 3002 3002 3003 3003 3003 3004 3005 3006 3006 3007 3008 3009 3009 3010 3011 3011 3012 3013 3013 3014 3014 3015 3016 3017 3018 3019
2998 2997 2997 2997 2996 2996 2995 2995 2995 2995 2994 2994 2994 2994 2994 2994 2994 2994 2994 2995 2995 2995 2995 2996 2996 2996 2997 2997 2997 2997 2997 2997 2997 2998 2998 2998 2998 2998 2999 2999 3000 3000 3001 3001 3001 3001 3002 3002 3003 3003 3004 3005 3006 3006 3007 3008 3008 3009 3010 3010 3011 3012 3012 3012 3013 3013 3014 3015 3016
2996 2996 2995 2995 2995 2994 2994 2993 2993 2993 2993 2993 2992 2992 2992 2992 2992 2992 2993 2993 2993 2993 2994 2994 2995 2995 2996 2996 2996 2996 2996 2996 2996 2996 2996 2997 2997 2997 2997 2998 2998 2999 3000 3000 3000 3000 3001 3001 3001 3002 3002 3003 3004 3004 3005 3006 3006 3007 3008 3009 3009 3010 3011 3011 3011 3012 3012 3013 3014
2995 2994 2994 2993 2993 2993 2992 2992 2992 2991 2991 2991 2991 2991 2991 2991 2991 2991 2991 2991 2992 2992 2992 2992 2993 2993 2994 2994 2994 2995 2995 2995 2995 2995 2995 2996 2996 2996 2996 2996 2997 2997 2998 2999 2999 2999 2999 3000 3000 3001 3001 3002 3002 3003 3003 3004 3005 3006 3006 3007 3007 3008 3009 3009 3010 3011 3011 3011 3012
2993 2993 2992 2992 2992 2991 2991 2991 2990 2990 2990 2989 2989 2989 2989 2989 2989 2989 2990 2990 2990 2990 2991 2991 2991 2992 2992 2993 2993 2993 2993 2994 2994 2994 2994 2994 2994 2994 2995 2995 2995 2996 2996 2997 2998 2998 2998 2999 2999 2999 3000 3001 3001 3001 3002 3002 3003 3004 3004 3005 3006 3006 3007 3008 3008 3009 3010 3010 3011
2992 2991 2991 2990 2990 2990 2990 2989 2989 2988 2988 2988 2988 2987 2987 2987 2987 2988 2988 2988 2988 2989 2989 2989 2990 2990 2991 2991 2991 2992 2992 2992 2993 2993 2993 2993 2993 2993 2993 2993 2994 2994 2995 2996 2996 2997 2997 2997 2998 2998 2999 2999 3000 3000 3001 3001 3002 3002 3002 3003 3004 3005 3005 3006 3007 3007 3008 3009 3010
2991 2990 2989 2989 2988 2988 2988 2987 2987 2987 2986 2986 2986 2986 2986 2986 2986 2986 2986 2986 2986 2987 2987 2988 2988 2988 2989 2989 2990 2990 2991 2991 2991 2991 2991 2992 2992 2992 2992 2992 2992 2992 2993 2994 2994 2995 2996 2996 2996 2997 2997 2998 2998 2999 2999 3000 3000 3001 3001 3002 3002 3003 3004 3004 3005 3006 3007 3008 3009
2989 2988 2988 2987 2987 2986 2986 2986 2986 2985 2985 2985 2984 2984 2984 2984 2984 2984 2984 2985 2985 2985 2986 2986 2986 2986 2987 2987 2988 2989 2989 2989 2990 2990 2990 2991 2991 2991 2991 2991 2991 2991 2991 2992 2992 2993 2994 2995 2995 2996 2996 2996 2997 2997 2998 2998 2999 2999 3000 3000 3001 3001 3002 3003 3004 3004 3005 3006 3007
2988 2987 2986 2986 2985 2985 2984 2984 2984 2983 2983 2983 2982 2982 2982 2982 2982 2982 2982 2983 2983 2983 2984 2984 2984 2985 2985 2986 2986 2987 2987 2988 2988 2988 2989 2989 2989 2989 2989 2990 2990 2990 2990 2990 2991 2991 2992 2993 2993 2994 2995 2995 2996 2996 2996 2997 2997 2998 2998 2999 2999 3000 3001 3002 3002 3003 3004 3005 3006
2986 2985 2985 2984 2983 2983 2982 2982 2981 2981 2981 2981 2981 2980 2980 2980 2980 2980 2981 2981 2981 2981 2982 2982 2983 2983 2983 2984 2985 2985 2986 2986 2986 2987 2987 2987 2988 2988 2988 2988 2989 2989 2989 2989 2989 2990 2990 2991 2991 2992 2993 2993 2994 2995 2995 2996 2996 2996 2997 2997 2998 2999 2999 3001 3001 3002 3002 3003 3004
2984 2983 2983 2982 2981 2981 2980 2980 2980 2979 2979 2979 2979 2978 2978 2978 2978 2978 2979 2979 2979 2980 2980 2981 2981 2981 2981 2982 2983 2983 2984 2984 2985 2985 2986 2986 2986 2986 2987 2987 2987 2987 2988 2988 2988 2988 2988 2989 2989 2990 2991 2991 2992 2993 2993 2994 2994 2995 2995 2996 2996 2997 2998 2999 3000 3000 3001 3001 3003
2982 2981 2981 2980 2980 2979 2978 2978 2977 2977 2977 2977 2976 2976 2976 2976 2976 2976 2976 2977 2977 2978 2978 2979 2979 2979 2980 2980 2981 2981 2982 2983 2983 2984 2984 2984 2985 2985 2985 2986 2986 2986 2986 2987 2987 2987 2987 2987 2988 2988 2989 2989 2990 2991 2991 2992 2993 2993 2994 2995 2995 2996 2996 2997 2998 2999 3000 3000 3001
2981 2980 2979 2979 2978 2977 2976 2976 2975 2975 2975 2974 2974 2974 2974 2974 2974 2974 2975 2975 2975 2976 2976 2976 2977 2977 2978 2978 2979 2980 2980 2981 2981 2982 2982 2983 2983 2983 2984 2984 2984 2985 2985 2986 2986 2986 2986 2986 2986 2987 2987 2988 2988 2989 2989 2990 2991 2991 2992 2993 2994 2994 2995 2996 2996 2997 2998 2999 3000
2978 2978 2977 2977 2976 2975 2975 2974 2973 2972 2972 2972 2972 2972 2972 2972 2972 2972 2973 2973 2973 2974 2974 2975 2975 2976 2976 2976 2977 2978 2978 2979 2980 2980 2981 2981 2981 2982 2982 2982 2983 2983 2984 2984 2984 2985 2985 2985 2985 2986 2986 2986 2986 2987 2988 2988 2989 2990 2991 2991 2992 2993 2993 2994 2995 2996 2996 2997 2999
2976 2976 2975 2975 2974 2973 2973 2972 2971 2971 2970 2970 2970 2970 2970 2970 2970 2971 2971 2971 2971 2971 2972 2972 2973 2973 2974 2975 2975 2976 2976 2977 2978 2978 2979 2980 2980 2980 2981 2981 2981 2982 2982 2983 2983 2983 2983 2984 2984 2984 2985 2985 2985 2986 2986 2986 2987 2988 2989 2990 2991 2991 2992 2993 2993 2994 2995 2996 2997
2974 2973 2973 2972 2972 2971 2971 2970 2969 2968 2968 2968 2967 2967 2968 2968 2968 2968 2968 2969 2969 2969 2970 2970 2971 2971 2972 2972 2973 2974 2974 2975 2976 2976 2977 2978 2978 2979 2979 2980 2980 2980 2981 2981 2981 2982 2982 2982 2982 2983 2983 2983 2984 2984 2984 2985 2986 2986 2987 2988 2989 2990 2991 2991 2992 2993 2993 2994 2995
2971 2971 2970 2970 2970 2969 2969 2968 2967 2966 2966 2965 2965 2965 2965 2965 2966 2966 2966 2966 2967 2967 2967 2968 2968 2969 2970 2970 2971 2971 2972 2973 2974 2975 2975 2976 2976 2977 2977 2978 2978 2979 2979 2980 2980 2980 2981 2981 2981 2981 2981 2982 2982 2983 2983 2983 2984 2984 2985 2986 2986 2988 2989 2990 2991 2991 2992 2992 2993
2968 2968 2967 2967 2967 2967 2966 2966 2965 2964 2964 2963 2963 2963 2963 2963 2963 2963 2964 2964 2964 2965 2965 2966 2966 2967 2967 2968 2969 2969 2970 2971 2971 2972 2973 2974 2974 2975 2976 2976 2977 2977 2978 2978 2978 2979 2979 2979 2980 2980 2980 2981 2981 2981 2981 2982 2982 2982 2983 2984 2984 2985 2986 2988 2989 2990 2990 2991 2992
2965 2965 2965 2964 2964 2964 2964 2963 2962 2962 2961 2961 2961 2960 2960 2960 2961 2961 2961 2961 2962 2962 2963 2963 2964 2964 2965 2966 2966 2967 2967 2968 2969 2970 2971 2971 2972 2972 2973 2974 2975 2976 2976 2976 2977 2977 2977 2978 2978 2978 2979 2979 2980 2980 2980 2980 2981 2981 2981 2982 2982 2983 2984 2985 2986 2987 2988 2989 2990
2962 2962 2961 2961 2961 2961 2961 2960 2960 2960 2959 2959 2958 2958 2958 2958 2958 2958 2958 2959 2959 2960 2960 2961 2961 2962 2962 2963 2963 2964 2965 2965 2966 2967 2968 2968 2969 2970 2971 2971 2972 2974 2974 2975 2975 2976 2976 2976 2976 2977 2977 2978 2978 2978 2979 2979 2979 2980 2980 2980 2981 2981 2982 2983 2984 2985 2986 2987 2988
2959 2959 2958 2958 2958 2958 2958 2958 2957 2957 2957 2956 2956 2956 2955 2955 2955 2956 2956 2956 2956 2957 2957 2958 2959 2959 2960 2960 2961 2961 2962 2963 2963 2964 2965 2966 2966 2967 2968 2969 2970 2971 2972 2973 2973 2974 2974 2975 2975 2976 2976 2976 2977 2977 2977 2978 2978 2978 2978 2979 2979 2980 2980 2981 2981 2983 2984 2985 2986
2956 2956 2956 2956 2955 2955 2955 2955 2955 2954 2954 2954 2954 2953 2953 2953 2953 2953 2953 2953 2954 2954 2955 2955 2956 2956 2957 2957 2958 2959 2959 2960 2961 2961 2962 2963 2963 2965 2965 2966 2967 2968 2970 2971 2971 2972 2972 2973 2973 2974 2974 2975 2975 2976 2976 2976 2977 2977 2977 2977 2978 2978 2978 2979 2979 2980 2981 2982 2984
2953 2953 2952 2952 2952 2952 2952 2952 2952 2952 2952 2952 2951 2951 2951 2950 2950 2950 2950 2951 2951 2951 2952 2953 2953 2954 2955 2955 2956 2956 2956 2957 2958 2958 2959 2960 2961 2962 2963 2964 2965 2966 2967 2968 2969 2970 2971 2971 2971 2972 2973 2973 2974 2974 2975 2975 2976 2976 2976 2976 2977 2977 2977 2978 2978 2978 2979 2980 2981
2950 2950 2950 2950 2949 2949 2949 2949 2949 2949 2949 2949 2949 2949 2948 2948 2947 2947 2947 2948 2948 2949 2949 2950 2951 2951 2952 2953 2953 2953 2954 2954 2955 2955 2956 2957 2958 2959 2960 2961 2962 2963 2964 2966 2967 2968 2969 2969 2970 2971 2971 2972 2972 2973 2973 2974 2974 2975 2975 2975 2976 2976 2976 2977 2977 2977 2978 2978 2979
2948 2947 2947 2946 2946 2946 2946 2946 2946 2946 2946 2946 2946 2946 2946 2946 2945 2945 2945 2945 2945 2946 2947 2947 2948 2949 2949 2950 2950 2951 2951 2951 2952 2953 2953 2954 2955 2956 2957 2958 2959 2961 2962 2963 2965 2966 2966 2967 2968 2969 2969 2970 2971 2971 2971 2972 2973 2973 2974 2974 2975 2975 2975 2976 2976 2976 2977 2977 2977
2945 2945 2944 2944 2943 2943 2943 2943 2943 2943 2943 2943 2943 2943 2943 2943 2943 2942 2942 2942 2943 2943 2944 2945 2946 2946 2946 2947 2947 2948 2948 2949 2949 2950 2951 2951 2952 2953 2955 2956 2957 2958 2959 2961 2962 2963 2964 2965 2966 2967 2967 2968 2969 2969 2970 2971 2971 2972 2972 2973 2973 2974 2974 2975 2975 2976 2976 2976 2976
2942 2942 2941 2941 2941 2940 2940 2940 2940 2940 2940 2940 2940 2940 2940 2940 2940 2940 2940 2940 2940 2941 2941 2942 2943 2943 2944 2944 2945 2945 2946 2946 2947 2947 2948 2949 2949 2950 2951 2953 2954 2955 2956 2958 2960 2961 2962 2963 2964 2965 2966 2966 2967 2967 2968 2969 2970 2970 2971 2971 2972 2972 2973 2973 2974 2975 2975 2975 2976